Torna al catalogo

YAOGAN 19

AttivoMilitareSSO
NORAD 39410·PAYLOAD·🇨🇳 China

Lanciato Nov 20, 2013 da Taiyuan Satellite Launch Center

Loading…

Prossimi Passaggi (prossime 24 ore)

TLE

AggiornatoSource: Space-Track

Epoca: Sep 14, 2026, 14:19 UTC

1 39410U 13065A   26257.59718484  .00000279  00000-0  85141-3 0  9990
2 39410 100.1233 230.0454 0008654 240.9582 119.0665 13.15586868615405

Traccia YAOGAN 19 in tempo reale con AllMySat

Download on the App Store